Torna al catalogo

STARLINK-30772

AttivoComunicazioniVLEO
NORAD 58135·PAYLOAD·🇺🇸 United States

Lanciato Oct 22, 2023 da Cape Canaveral Space Force Station

Loading…

Prossimi Passaggi (prossime 24 ore)

TLE

AggiornatoSource: CelesTrak SupGP

Epoca: Sep 14, 2026, 13:22 UTC

1 58135C 23162T   26257.55743056  .00017103  00000+0  61980-3 0  2578
2 58135  43.0006 145.7794 0001611 263.7336  68.8485 15.27551338    13

Traccia STARLINK-30772 in tempo reale con AllMySat

Download on the App Store